Basrah, Iraq

2:48 PM +03 on April 19, 2018 (GMT +0300)
Basrah International

Weather History for ORMM - April, 2014

Change the Weather History Date:

Thursday, April 3, 2014

  Actual Average Record
Temperature  
Mean Temperature 64 °F -  
Max Temperature 77 °F - - ()
Min Temperature 51 °F - - ()
Degree Days  
Heating Degree Days 1    
Growing Degree Days 14 (Base 50)    
Moisture  
Dew Point 47 °F    
Average Humidity 61    
Maximum Humidity 100    
Minimum Humidity 18    
Precipitation  
Precipitation 0.00 in - - ()
Sea Level Pressure  
Sea Level Pressure 29.85 in    
Wind  
Wind Speed 12 mph ()    
Max Wind Speed 23 mph    
Max Gust Speed 29 mph    
Visibility 3.7 miles    
Events      
T = Trace of Precipitation, MM = Missing Value Source: Averaged Metar Reports

Daily Weather History Graph

Daily Weather History Graph

Search for Another Location

Airport or City:

Astronomy

Apr. 03, 2014 Rise Set
Actual Time 5:35 AM +03 6:08 PM +03
Civil Twilight 5:11 AM +03 6:33 PM +03
Nautical Twilight 4:43 AM +03 7:01 PM +03
Astronomical Twilight 4:14 AM +03 7:30 PM +03
Moon 8:00 AM +03 (4/3) 9:53 PM +03 (4/3)
Length of Visible Light 13h 21m
Length of Day
12h 32m
Waxing Crescent, 15% of the Moon is Illuminated
Apr 3
Waxing Crescent
Apr 7
First Quarter
Apr 15
Full
Apr 22
Last Quarter
Apr 29
New

Hourly Weather History & Observations

Time (+03) Temp. Dew Point Humidity Pressure Visibility Wind Dir Wind Speed Gust Speed Precip Events Conditions
12:00 AM 62.6 °F 60.8 °F 94% 29.68 in 4.3 mi NW 18.4 mph - N/A   Mostly Cloudy
1:00 AM 60.8 °F 59.0 °F 94% 29.71 in 3.7 mi WNW 23.0 mph - N/A   Mostly Cloudy
2:00 AM 59.0 °F 57.2 °F 94% 29.74 in 3.7 mi WNW 17.3 mph 28.8 mph N/A   Mostly Cloudy
3:00 AM 57.2 °F 57.2 °F 100% 29.74 in 3.7 mi West 16.1 mph - N/A   Mostly Cloudy
4:00 AM 57.2 °F 55.4 °F 94% 29.77 in 3.7 mi WNW 13.8 mph - N/A   Unknown
5:00 AM 53.6 °F 50.0 °F 88% 29.80 in 3.1 mi West 9.2 mph - N/A   Mist
6:00 AM 51.8 °F 50.0 °F 94% 29.83 in 3.1 mi West 9.2 mph - N/A   Clear
7:00 AM 53.6 °F 50.0 °F 88% 29.86 in 3.1 mi West 13.8 mph - N/A   Clear
8:00 AM 55.4 °F 50.0 °F 82% 29.86 in 5.0 mi West 18.4 mph - N/A   Clear
9:00 AM - - %  in - Calm Calm - -  
9:00 AM 59.0 °F 50.0 °F 72% 29.89 in - West 6.9 mph - N/A   Clear
10:00 AM 62.6 °F 48.2 °F 59% 29.89 in - West 11.5 mph - N/A   Clear
11:00 AM 66.2 °F 46.4 °F 49% 29.89 in - West 12.7 mph - N/A   Clear
12:00 PM 69.8 °F 39.2 °F 33% 29.89 in - NW 11.5 mph - N/A   Clear
1:00 PM 73.4 °F 37.4 °F 27% 29.89 in - West 11.5 mph - N/A   Clear
2:00 PM 75.2 °F 35.6 °F 24% 29.86 in - WNW 21.9 mph - N/A   Clear
3:00 PM - - %  in - ENE 203.6 mph - -  
3:00 PM 77.0 °F 30.2 °F 18% 29.86 in - WNW 16.1 mph - N/A   Clear
4:00 PM 75.2 °F 39.2 °F 27% 29.86 in - WNW 12.7 mph - N/A   Clear
5:00 PM 75.2 °F 37.4 °F 25% 29.86 in - West 12.7 mph - N/A   Clear
6:00 PM 73.4 °F 37.4 °F 27% 29.86 in - West 10.4 mph - N/A   Clear
7:00 PM 69.8 °F 44.6 °F 40% 29.89 in - WNW 4.6 mph - N/A   Clear
8:00 PM 68.0 °F 46.4 °F 46% 29.92 in - Calm Calm - N/A   Clear
9:00 PM - - %  in - ENE 203.6 mph - -  
9:00 PM 66.2 °F 50.0 °F 56% 29.95 in - Calm Calm - N/A   Clear
10:00 PM 62.6 °F 51.8 °F 68% 29.95 in - Calm Calm - N/A   Clear
11:00 PM 60.8 °F 51.8 °F 72% 29.95 in - Calm Calm - N/A   Clear